| time (UTC) | temp F | wind direction | speed MPH | gust MPH | rain 1hr in | rain 24hr in | rain mn in | humidity % | barometer mb |
| 20260506185023 | 58 | 0 | 0.0 | 1.0 | 0.00 | 0.01 | 0.01 | 96 | 1011.2 |
| 20260506184231 | 57 | 0 | 0.0 | 4.0 | 0.00 | 0.01 | 0.01 | 96 | 1011.0 |
| 20260506183734 | 57 | 0 | 0.0 | 4.0 | 0.00 | 0.01 | 0.01 | 96 | 1011.0 |
| 20260506183231 | 57 | 0 | 0.0 | 0.0 | 0.00 | 0.01 | 0.01 | 96 | 1011.1 |
| 20260506182733 | 56 | 0 | 0.0 | 1.0 | 0.00 | 0.01 | 0.01 | 96 | 1011.3 |
| 20260506182238 | 57 | 0 | 0.0 | 1.0 | 0.00 | 0.01 | 0.01 | 96 | 1011.4 |
| 20260506181731 | 56 | 0 | 0.0 | 1.0 | 0.00 | 0.01 | 0.01 | 95 | 1011.5 |
| 20260506181238 | 56 | 0 | 0.0 | 1.0 | 0.00 | 0.01 | 0.01 | 95 | 1011.5 |
| 20260506180731 | 56 | 0 | 0.0 | 1.0 | 0.00 | 0.01 | 0.01 | 95 | 1011.3 |
| 20260506180236 | 56 | 0 | 0.0 | 1.0 | 0.00 | 0.01 | 0.01 | 95 | 1011.0 |
| 20260506175741 | 56 | 0 | 0.0 | 1.0 | 0.00 | 0.01 | 0.01 | 95 | 1011.2 |
| 20260506175232 | 56 | 0 | 0.0 | 1.0 | 0.00 | 0.01 | 0.01 | 95 | 1011.2 |
| 20260506174734 | 56 | 0 | 0.0 | 2.0 | 0.00 | 0.01 | 0.01 | 95 | 1011.5 |
| 20260506174231 | 56 | 0 | 0.0 | 2.0 | 0.00 | 0.01 | 0.01 | 95 | 1011.5 |
| 20260506173731 | 56 | 0 | 0.0 | 2.0 | 0.00 | 0.01 | 0.01 | 95 | 1011.5 |
| 20260506173231 | 56 | 0 | 0.0 | 3.0 | 0.00 | 0.01 | 0.01 | 95 | 1011.7 |
| 20260506172731 | 56 | 0 | 0.0 | 3.0 | 0.00 | 0.01 | 0.01 | 95 | 1012.0 |
| 20260506172233 | 56 | 0 | 0.0 | 1.0 | 0.00 | 0.01 | 0.01 | 94 | 1012.3 |
| 20260506171736 | 56 | 0 | 0.0 | 1.0 | 0.00 | 0.01 | 0.01 | 94 | 1012.5 |
| 20260506171231 | 56 | 0 | 0.0 | 3.0 | 0.00 | 0.01 | 0.01 | 94 | 1012.7 |
| 20260506170731 | 56 | 0 | 0.0 | 3.0 | 0.00 | 0.01 | 0.01 | 94 | 1012.9 |
| 20260506170231 | 56 | 0 | 0.0 | 2.0 | 0.00 | 0.01 | 0.01 | 94 | 1012.9 |
| 20260506165731 | 56 | 0 | 0.0 | 3.0 | 0.00 | 0.01 | 0.01 | 94 | 1013.0 |
| 20260506165231 | 56 | 0 | 0.0 | 3.0 | 0.00 | 0.01 | 0.01 | 94 | 1012.9 |
| 20260506164731 | 56 | 0 | 0.0 | 4.0 | 0.00 | 0.01 | 0.01 | 93 | 1012.9 |
| 20260506164231 | 56 | 0 | 0.0 | 5.0 | 0.00 | 0.01 | 0.01 | 93 | 1012.9 |
| 20260506163732 | 56 | 0 | 0.0 | 5.0 | 0.00 | 0.01 | 0.01 | 93 | 1012.8 |
| 20260506163231 | 56 | 0 | 0.0 | 1.0 | 0.00 | 0.01 | 0.01 | 93 | 1012.8 |
| 20260506162731 | 56 | 0 | 0.0 | 2.0 | 0.00 | 0.01 | 0.01 | 93 | 1012.8 |
| 20260506162231 | 56 | 0 | 0.0 | 2.0 | 0.00 | 0.01 | 0.01 | 93 | 1012.8 |
| 20260506161731 | 56 | 0 | 0.0 | 2.0 | 0.00 | 0.01 | 0.01 | 93 | 1012.7 |
| 20260506161231 | 56 | 0 | 0.0 | 2.0 | 0.00 | 0.01 | 0.01 | 93 | 1012.7 |
| 20260506160749 | 56 | 0 | 0.0 | 2.0 | 0.00 | 0.01 | 0.01 | 93 | 1012.6 |
| 20260506160231 | 56 | 0 | 0.0 | 3.0 | 0.00 | 0.01 | 0.01 | 93 | 1012.2 |
| 20260506155731 | 56 | 0 | 0.0 | 3.0 | 0.00 | 0.01 | 0.01 | 93 | 1012.0 |
| 20260506155231 | 56 | 0 | 0.0 | 1.0 | 0.00 | 0.01 | 0.01 | 93 | 1012.0 |
| 20260506154731 | 56 | 0 | 0.0 | 2.0 | 0.00 | 0.01 | 0.01 | 93 | 1012.0 |
| 20260506154236 | 56 | 0 | 0.0 | 2.0 | 0.00 | 0.01 | 0.01 | 93 | 1012.0 |
| 20260506153739 | 56 | 0 | 0.0 | 1.0 | 0.00 | 0.01 | 0.01 | 93 | 1012.0 |
| 20260506153240 | 56 | 0 | 0.0 | 2.0 | 0.00 | 0.01 | 0.01 | 93 | 1011.7 |
| 20260506152731 | 56 | 0 | 0.0 | 2.0 | 0.00 | 0.01 | 0.01 | 93 | 1011.6 |
| 20260506152231 | 56 | 0 | 0.0 | 2.0 | 0.00 | 0.01 | 0.01 | 94 | 1011.7 |
| 20260506151734 | 56 | 0 | 0.0 | 1.0 | 0.00 | 0.01 | 0.01 | 94 | 1011.5 |
| 20260506150834 | 56 | 0 | 0.0 | 1.0 | 0.00 | 0.01 | 0.01 | 95 | 1011.8 |
| 20260506150335 | 56 | 0 | 0.0 | 2.0 | 0.00 | 0.01 | 0.01 | 95 | 1011.8 |
| 20260506145836 | 56 | 0 | 0.0 | 2.0 | 0.00 | 0.01 | 0.01 | 96 | 1011.8 |
| 20260506145044 | 55 | 0 | 0.0 | 5.0 | 0.00 | 0.01 | 0.01 | 96 | 1011.7 |
| 20260506144544 | 55 | 0 | 0.0 | 5.0 | 0.00 | 0.01 | 0.01 | 96 | 1011.6 |
| 20260506143929 | 55 | 0 | 0.0 | 2.0 | 0.00 | 0.01 | 0.01 | 96 | 1011.9 |
| 20260506143430 | 54 | 0 | 0.0 | 2.0 | 0.00 | 0.01 | 0.01 | 97 | 1011.9 |
| 20260506142930 | 54 | 0 | 0.0 | 4.0 | 0.00 | 0.01 | 0.01 | 96 | 1011.5 |
| 20260506142431 | 54 | 248 | 1.0 | 4.0 | 0.00 | 0.01 | 0.01 | 97 | 1011.6 |
| 20260506141930 | 54 | 0 | 0.0 | 3.0 | 0.00 | 0.01 | 0.01 | 96 | 1011.7 |
| 20260506141431 | 53 | 0 | 0.0 | 3.0 | 0.00 | 0.01 | 0.01 | 96 | 1011.4 |
| 20260506140930 | 53 | 0 | 0.0 | 4.0 | 0.00 | 0.01 | 0.01 | 97 | 1011.4 |
| 20260506140431 | 53 | 0 | 0.0 | 5.0 | 0.00 | 0.01 | 0.01 | 96 | 1011.5 |
| 20260506135929 | 53 | 0 | 0.0 | 5.0 | 0.00 | 0.01 | 0.01 | 96 | 1011.6 |
| 20260506135448 | 53 | 0 | 0.0 | 3.0 | 0.01 | 0.01 | 0.01 | 96 | 1011.5 |
| 20260506134931 | 53 | 0 | 0.0 | 3.0 | 0.01 | 0.01 | 0.01 | 96 | 1011.5 |
| 20260506134041 | 53 | 0 | 0.0 | 3.0 | 0.01 | 0.01 | 0.01 | 96 | 1011.3 |
| 20260506133539 | 53 | 0 | 0.0 | 3.0 | 0.01 | 0.01 | 0.01 | 96 | 1011.3 |
| 20260506133039 | 53 | 0 | 0.0 | 3.0 | 0.01 | 0.01 | 0.01 | 96 | 1011.3 |
| 20260506132539 | 53 | 0 | 0.0 | 3.0 | 0.01 | 0.01 | 0.01 | 96 | 1011.3 |
| 20260506132039 | 53 | 0 | 0.0 | 2.0 | 0.01 | 0.01 | 0.01 | 96 | 1011.3 |
| 20260506131542 | 53 | 0 | 0.0 | 3.0 | 0.01 | 0.01 | 0.01 | 95 | 1011.3 |
| 20260506131043 | 53 | 0 | 0.0 | 3.0 | 0.01 | 0.01 | 0.01 | 95 | 1011.2 |
| 20260506130544 | 53 | 0 | 0.0 | 2.0 | 0.01 | 0.01 | 0.01 | 95 | 1011.3 |
| 20260506130039 | 53 | 0 | 0.0 | 1.0 | 0.01 | 0.01 | 0.01 | 95 | 1011.3 |
| 20260506125540 | 53 | 0 | 0.0 | 1.0 | 0.00 | 0.00 | 0.00 | 95 | 1011.5 |
| 20260506125044 | 53 | 0 | 0.0 | 1.0 | 0.00 | 0.00 | 0.00 | 95 | 1011.4 |
| 20260506124548 | 52 | 0 | 0.0 | 1.0 | 0.00 | 0.00 | 0.00 | 95 | 1011.3 |
| 20260506124041 | 52 | 0 | 0.0 | 1.0 | 0.00 | 0.00 | 0.00 | 95 | 1011.1 |
| 20260506123544 | 52 | 0 | 0.0 | 1.0 | 0.00 | 0.00 | 0.00 | 95 | 1011.2 |
| 20260506123039 | 52 | 0 | 0.0 | 2.0 | 0.00 | 0.00 | 0.00 | 95 | 1011.2 |
| 20260506122541 | 52 | 0 | 0.0 | 2.0 | 0.00 | 0.00 | 0.00 | 95 | 1011.3 |
| 20260506122039 | 52 | 0 | 0.0 | 2.0 | 0.00 | 0.00 | 0.00 | 95 | 1011.7 |
| 20260506121540 | 52 | 0 | 0.0 | 2.0 | 0.00 | 0.00 | 0.00 | 95 | 1011.5 |
| 20260506121040 | 52 | 0 | 0.0 | 1.0 | 0.00 | 0.00 | 0.00 | 95 | 1011.5 |
| 20260506120539 | 52 | 0 | 0.0 | 2.0 | 0.00 | 0.00 | 0.00 | 95 | 1011.4 |
| 20260506120039 | 52 | 0 | 0.0 | 2.0 | 0.00 | 0.00 | 0.00 | 95 | 1011.4 |
| 20260506115539 | 52 | 0 | 0.0 | 4.0 | 0.00 | 0.00 | 0.00 | 95 | 1011.3 |
| 20260506115039 | 52 | 0 | 0.0 | 4.0 | 0.00 | 0.00 | 0.00 | 95 | 1011.3 |
| 20260506114539 | 52 | 0 | 0.0 | 1.0 | 0.00 | 0.00 | 0.00 | 94 | 1011.4 |
| 20260506114039 | 52 | 0 | 0.0 | 2.0 | 0.00 | 0.00 | 0.00 | 94 | 1011.2 |
| 20260506113542 | 52 | 0 | 0.0 | 2.0 | 0.00 | 0.00 | 0.00 | 94 | 1011.2 |
| 20260506113039 | 52 | 0 | 0.0 | 1.0 | 0.00 | 0.00 | 0.00 | 94 | 1010.9 |
| 20260506112542 | 52 | 0 | 0.0 | 2.0 | 0.00 | 0.00 | 0.00 | 94 | 1010.9 |
| 20260506112039 | 52 | 0 | 0.0 | 2.0 | 0.00 | 0.00 | 0.00 | 94 | 1010.5 |
| 20260506111543 | 52 | 0 | 0.0 | 1.0 | 0.00 | 0.00 | 0.00 | 94 | 1010.5 |
| 20260506111045 | 52 | 0 | 0.0 | 1.0 | 0.00 | 0.00 | 0.00 | 94 | 1010.6 |
| 20260506110539 | 52 | 0 | 0.0 | 1.0 | 0.00 | 0.00 | 0.00 | 94 | 1010.8 |
| 20260506110039 | 52 | 0 | 0.0 | 1.0 | 0.00 | 0.00 | 0.00 | 94 | 1010.6 |
| 20260506105540 | 52 | 0 | 0.0 | 1.0 | 0.00 | 0.00 | 0.00 | 94 | 1010.7 |
| 20260506105039 | 52 | 0 | 0.0 | 1.0 | 0.00 | 0.00 | 0.00 | 93 | 1010.5 |
| 20260506104543 | 52 | 0 | 0.0 | 0.0 | 0.00 | 0.00 | 0.00 | 93 | 1010.6 |
| 20260506104040 | 52 | 0 | 0.0 | 0.0 | 0.00 | 0.00 | 0.00 | 93 | 1010.6 |
| 20260506103545 | 52 | 0 | 0.0 | 0.0 | 0.00 | 0.00 | 0.00 | 93 | 1010.4 |
| 20260506103045 | 52 | 0 | 0.0 | 0.0 | 0.00 | 0.00 | 0.00 | 93 | 1010.3 |
| 20260506102542 | 52 | 0 | 0.0 | 1.0 | 0.00 | 0.00 | 0.00 | 93 | 1010.1 |
| 20260506102038 | 52 | 0 | 0.0 | 1.0 | 0.00 | 0.00 | 0.00 | 93 | 1010.2 |
| 20260506101540 | 52 | 0 | 0.0 | 1.0 | 0.00 | 0.00 | 0.00 | 93 | 1010.4 |
| 20260506101147 | 52 | 0 | 0.0 | 2.0 | 0.00 | 0.00 | 0.00 | 93 | 1010.4 |
| 20260506101041 | 52 | 0 | 0.0 | 2.0 | 0.00 | 0.00 | 0.00 | 93 | 1010.4 |
| 20260506100538 | 52 | 0 | 0.0 | 2.0 | 0.00 | 0.00 | 0.00 | 93 | 1010.5 |
| 20260506100039 | 52 | 0 | 0.0 | 1.0 | 0.00 | 0.00 | 0.00 | 92 | 1010.2 |
| 20260506095539 | 52 | 0 | 0.0 | 1.0 | 0.00 | 0.00 | 0.00 | 92 | 1010.4 |
| 20260506095038 | 52 | 0 | 0.0 | 1.0 | 0.00 | 0.00 | 0.00 | 92 | 1010.4 |
| 20260506094539 | 52 | 0 | 0.0 | 2.0 | 0.00 | 0.00 | 0.00 | 92 | 1010.5 |
| 20260506094040 | 52 | 0 | 0.0 | 2.0 | 0.00 | 0.00 | 0.00 | 91 | 1010.3 |
| 20260506093541 | 52 | 0 | 0.0 | 2.0 | 0.00 | 0.00 | 0.00 | 91 | 1010.4 |
| 20260506093042 | 52 | 0 | 0.0 | 2.0 | 0.00 | 0.00 | 0.00 | 91 | 1010.3 |
| 20260506092545 | 52 | 0 | 0.0 | 1.0 | 0.00 | 0.00 | 0.00 | 91 | 1010.4 |
| 20260506092038 | 52 | 0 | 0.0 | 1.0 | 0.00 | 0.00 | 0.00 | 90 | 1010.7 |
| 20260506091539 | 52 | 0 | 0.0 | 1.0 | 0.00 | 0.00 | 0.00 | 90 | 1010.6 |
| 20260506091044 | 52 | 0 | 0.0 | 1.0 | 0.00 | 0.00 | 0.00 | 90 | 1010.7 |
| 20260506090538 | 52 | 0 | 0.0 | 1.0 | 0.00 | 0.00 | 0.00 | 90 | 1010.7 |
| 20260506090045 | 52 | 0 | 0.0 | 1.0 | 0.00 | 0.00 | 0.00 | 90 | 1010.7 |
| 20260506085540 | 52 | 0 | 0.0 | 1.0 | 0.00 | 0.00 | 0.00 | 89 | 1010.7 |
| 20260506085038 | 52 | 0 | 0.0 | 2.0 | 0.00 | 0.00 | 0.00 | 90 | 1010.7 |
| 20260506084539 | 52 | 0 | 0.0 | 2.0 | 0.00 | 0.00 | 0.00 | 89 | 1010.9 |
| 20260506084038 | 52 | 0 | 0.0 | 1.0 | 0.00 | 0.00 | 0.00 | 89 | 1010.9 |
| 20260506083541 | 52 | 0 | 0.0 | 3.0 | 0.00 | 0.00 | 0.00 | 89 | 1010.9 |
| 20260506083038 | 52 | 0 | 0.0 | 3.0 | 0.00 | 0.00 | 0.00 | 89 | 1011.1 |
| 20260506082541 | 52 | 0 | 0.0 | 1.0 | 0.00 | 0.00 | 0.00 | 88 | 1011.1 |
| 20260506082038 | 52 | 0 | 0.0 | 0.0 | 0.00 | 0.00 | 0.00 | 87 | 1011.0 |
| 20260506081539 | 52 | 0 | 0.0 | 1.0 | 0.00 | 0.00 | 0.00 | 87 | 1011.0 |
| 20260506081038 | 52 | 0 | 0.0 | 1.0 | 0.00 | 0.00 | 0.00 | 86 | 1011.0 |
| 20260506080539 | 52 | 0 | 0.0 | 1.0 | 0.00 | 0.00 | 0.00 | 86 | 1011.1 |
| 20260506073038 | 53 | 0 | 0.0 | 3.0 | 0.00 | 0.00 | 0.00 | 85 | 1011.5 |
| 20260506072539 | 53 | 0 | 0.0 | 2.0 | 0.00 | 0.00 | 0.00 | 84 | 1011.4 |
| 20260506072038 | 52 | 0 | 0.0 | 1.0 | 0.00 | 0.00 | 0.00 | 84 | 1011.5 |
| 20260506071543 | 52 | 0 | 0.0 | 1.0 | 0.00 | 0.00 | 0.00 | 84 | 1011.3 |
| 20260506071038 | 52 | 0 | 0.0 | 1.0 | 0.00 | 0.00 | 0.00 | 83 | 1011.3 |
| 20260506070538 | 53 | 0 | 0.0 | 1.0 | 0.00 | 0.00 | 0.00 | 83 | 1011.3 |
| 20260506062045 | 54 | 0 | 0.0 | 2.0 | 0.00 | 0.00 | 0.00 | 78 | 1011.8 |
| 20260506061259 | 54 | 0 | 0.0 | 3.0 | 0.00 | 0.00 | 0.00 | 78 | 1011.9 |
| 20260506060758 | 54 | 0 | 0.0 | 1.0 | 0.00 | 0.00 | 0.00 | 77 | 1011.9 |
| 20260506060256 | 54 | 0 | 0.0 | 2.0 | 0.00 | 0.00 | 0.00 | 76 | 1011.9 |
| 20260506051133 | 55 | 0 | 0.0 | 1.0 | 0.00 | 0.00 | 0.00 | 71 | 1012.0 |
| 20260506050619 | 56 | 0 | 0.0 | 1.0 | 0.00 | 0.00 | 0.00 | 70 | 1011.9 |
| 20260506050119 | 56 | 0 | 0.0 | 1.0 | 0.00 | 0.00 | 0.00 | 69 | 1011.9 |
| 20260506045132 | 57 | 0 | 0.0 | 2.0 | 0.00 | 0.00 | 0.00 | 68 | 1012.1 |
| 20260506044619 | 57 | 0 | 0.0 | 2.0 | 0.00 | 0.00 | 0.00 | 68 | 1012.0 |
| 20260506044128 | 57 | 0 | 0.0 | 1.0 | 0.00 | 0.00 | 0.00 | 68 | 1012.2 |
| 20260506043633 | 57 | 0 | 0.0 | 1.0 | 0.00 | 0.00 | 0.00 | 68 | 1012.1 |
| 20260506043119 | 57 | 0 | 0.0 | 1.0 | 0.00 | 0.00 | 0.00 | 68 | 1012.2 |
| 20260506042619 | 57 | 0 | 0.0 | 1.0 | 0.00 | 0.00 | 0.00 | 68 | 1012.2 |
| 20260506042119 | 57 | 0 | 0.0 | 0.0 | 0.00 | 0.00 | 0.00 | 68 | 1012.2 |
| 20260506041619 | 57 | 0 | 0.0 | 3.0 | 0.00 | 0.00 | 0.00 | 68 | 1012.2 |
| 20260506041119 | 57 | 0 | 0.0 | 3.0 | 0.00 | 0.00 | 0.00 | 67 | 1012.2 |
| 20260506040619 | 57 | 0 | 0.0 | 1.0 | 0.00 | 0.00 | 0.00 | 67 | 1012.3 |
| 20260506035737 | 58 | 0 | 0.0 | 2.0 | 0.00 | 0.00 | 0.00 | 66 | 1012.4 |
| 20260506035237 | 58 | 0 | 0.0 | 2.0 | 0.00 | 0.00 | 0.00 | 66 | 1012.4 |
| 20260506034737 | 58 | 0 | 0.0 | 2.0 | 0.00 | 0.00 | 0.00 | 66 | 1012.4 |
| 20260506034239 | 58 | 0 | 0.0 | 3.0 | 0.00 | 0.00 | 0.00 | 66 | 1012.3 |
| 20260506033737 | 58 | 0 | 0.0 | 3.0 | 0.00 | 0.00 | 0.00 | 66 | 1012.3 |
| 20260506033237 | 58 | 0 | 0.0 | 3.0 | 0.00 | 0.00 | 0.00 | 66 | 1012.2 |
| 20260506032744 | 58 | 0 | 0.0 | 3.0 | 0.00 | 0.00 | 0.00 | 65 | 1012.4 |
| 20260506032237 | 58 | 0 | 0.0 | 3.0 | 0.00 | 0.00 | 0.00 | 65 | 1012.3 |
| 20260506031737 | 58 | 0 | 0.0 | 3.0 | 0.00 | 0.00 | 0.00 | 65 | 1012.2 |
| 20260506031237 | 58 | 0 | 0.0 | 2.0 | 0.00 | 0.00 | 0.00 | 64 | 1012.1 |
| 20260506030743 | 58 | 0 | 0.0 | 2.0 | 0.00 | 0.00 | 0.00 | 64 | 1012.3 |
| 20260506030237 | 58 | 0 | 0.0 | 2.0 | 0.00 | 0.00 | 0.00 | 64 | 1012.3 |
| 20260506025737 | 59 | 0 | 0.0 | 4.0 | 0.00 | 0.00 | 0.00 | 64 | 1012.3 |
| 20260506025245 | 59 | 0 | 0.0 | 4.0 | 0.00 | 0.00 | 0.00 | 63 | 1012.3 |
| 20260506024737 | 59 | 0 | 0.0 | 4.0 | 0.00 | 0.00 | 0.00 | 64 | 1012.5 |
| 20260506024241 | 59 | 0 | 0.0 | 2.0 | 0.00 | 0.00 | 0.00 | 63 | 1012.6 |
| 20260506023737 | 59 | 0 | 0.0 | 2.0 | 0.00 | 0.00 | 0.00 | 63 | 1012.7 |
| 20260506023237 | 59 | 0 | 0.0 | 2.0 | 0.00 | 0.00 | 0.00 | 63 | 1012.8 |
| 20260506022737 | 59 | 0 | 0.0 | 2.0 | 0.00 | 0.00 | 0.00 | 63 | 1012.8 |
| 20260506022242 | 59 | 0 | 0.0 | 2.0 | 0.00 | 0.00 | 0.00 | 63 | 1012.5 |
| 20260506021737 | 58 | 0 | 0.0 | 2.0 | 0.00 | 0.00 | 0.00 | 62 | 1012.5 |
| 20260506021240 | 58 | 0 | 0.0 | 1.0 | 0.00 | 0.00 | 0.00 | 62 | 1012.5 |
| 20260506020444 | 59 | 0 | 0.0 | 2.0 | 0.00 | 0.00 | 0.00 | 62 | 1012.6 |
| 20260506015944 | 59 | 0 | 0.0 | 0.0 | 0.00 | 0.00 | 0.00 | 61 | 1012.7 |
| 20260506014944 | 59 | 0 | 0.0 | 4.0 | 0.00 | 0.00 | 0.00 | 60 | 1012.5 |
| 20260506014448 | 60 | 0 | 0.0 | 3.0 | 0.00 | 0.00 | 0.00 | 60 | 1012.6 |
| 20260506013944 | 60 | 0 | 0.0 | 3.0 | 0.00 | 0.00 | 0.00 | 59 | 1012.5 |
| 20260506013445 | 60 | 0 | 0.0 | 3.0 | 0.00 | 0.00 | 0.00 | 59 | 1012.5 |
| 20260506012944 | 60 | 0 | 0.0 | 3.0 | 0.00 | 0.00 | 0.00 | 59 | 1012.5 |
| 20260506012445 | 60 | 0 | 0.0 | 6.0 | 0.00 | 0.00 | 0.00 | 59 | 1012.4 |
| 20260506011944 | 60 | 0 | 0.0 | 6.0 | 0.00 | 0.00 | 0.00 | 59 | 1012.5 |
| 20260506011203 | 60 | 0 | 0.0 | 5.0 | 0.00 | 0.00 | 0.00 | 59 | 1012.6 |
| 20260506010703 | 60 | 0 | 0.0 | 7.0 | 0.00 | 0.00 | 0.00 | 58 | 1012.5 |
| 20260506010224 | 60 | 0 | 0.0 | 7.0 | 0.00 | 0.00 | 0.00 | 58 | 1012.4 |
| 20260506005715 | 60 | 0 | 0.0 | 1.0 | 0.00 | 0.00 | 0.00 | 58 | 1012.3 |
| 20260506004633 | 60 | 0 | 0.0 | 7.0 | 0.00 | 0.00 | 0.00 | 58 | 1012.3 |
| 20260506004110 | 60 | 0 | 0.0 | 7.0 | 0.00 | 0.00 | 0.00 | 57 | 1012.1 |
| 20260506003344 | 60 | 0 | 0.0 | 2.0 | 0.00 | 0.00 | 0.00 | 57 | 1012.2 |
| 20260506002844 | 61 | 0 | 0.0 | 2.0 | 0.00 | 0.00 | 0.00 | 56 | 1012.2 |
| 20260506002344 | 61 | 0 | 0.0 | 2.0 | 0.00 | 0.00 | 0.00 | 56 | 1012.2 |
| 20260506001844 | 61 | 0 | 0.0 | 2.0 | 0.00 | 0.00 | 0.00 | 56 | 1012.2 |
| 20260506001344 | 61 | 0 | 0.0 | 2.0 | 0.00 | 0.00 | 0.00 | 55 | 1012.0 |
| 20260506000844 | 61 | 0 | 0.0 | 3.0 | 0.00 | 0.00 | 0.00 | 55 | 1012.3 |
| 20260506000344 | 61 | 0 | 0.0 | 3.0 | 0.00 | 0.00 | 0.00 | 55 | 1012.3 |
| 20260505235429 | 62 | 0 | 0.0 | 5.0 | 0.00 | 0.00 | 0.00 | 54 | 1012.2 |
| 20260505234929 | 62 | 0 | 0.0 | 5.0 | 0.00 | 0.00 | 0.00 | 54 | 1012.2 |
| 20260505234429 | 62 | 0 | 0.0 | 5.0 | 0.00 | 0.00 | 0.00 | 55 | 1012.3 |
| 20260505233929 | 62 | 0 | 0.0 | 2.0 | 0.00 | 0.00 | 0.00 | 55 | 1012.2 |
| 20260505233429 | 62 | 0 | 0.0 | 2.0 | 0.00 | 0.00 | 0.00 | 55 | 1012.1 |
| 20260505232929 | 62 | 0 | 0.0 | 3.0 | 0.00 | 0.00 | 0.00 | 54 | 1012.1 |
| 20260505232429 | 62 | 0 | 0.0 | 3.0 | 0.00 | 0.00 | 0.00 | 54 | 1012.1 |
| 20260505231929 | 62 | 0 | 0.0 | 2.0 | 0.00 | 0.00 | 0.00 | 54 | 1011.9 |
| 20260505231024 | 63 | 0 | 0.0 | 4.0 | 0.00 | 0.00 | 0.00 | 53 | 1011.8 |
| 20260505230524 | 63 | 0 | 0.0 | 4.0 | 0.00 | 0.00 | 0.00 | 54 | 1011.8 |
| 20260505230023 | 63 | 0 | 0.0 | 2.0 | 0.00 | 0.00 | 0.00 | 53 | 1011.9 |
| 20260505225523 | 64 | 0 | 0.0 | 1.0 | 0.00 | 0.00 | 0.00 | 54 | 1012.0 |
| 20260505224830 | 64 | 0 | 0.0 | 4.0 | 0.00 | 0.00 | 0.00 | 52 | 1012.0 |
| 20260505224330 | 64 | 0 | 0.0 | 6.0 | 0.00 | 0.00 | 0.00 | 53 | 1011.8 |
| 20260505223832 | 64 | 0 | 0.0 | 8.0 | 0.00 | 0.00 | 0.00 | 53 | 1011.8 |
| 20260505223330 | 64 | 0 | 0.0 | 8.0 | 0.00 | 0.00 | 0.00 | 51 | 1011.8 |
| 20260505222554 | 64 | 211 | 1.0 | 4.0 | 0.00 | 0.00 | 0.00 | 50 | 1011.9 |
| 20260505222116 | 65 | 0 | 0.0 | 8.0 | 0.00 | 0.00 | 0.00 | 52 | 1011.8 |
| 20260505221557 | 65 | 0 | 0.0 | 8.0 | 0.00 | 0.00 | 0.00 | 51 | 1011.9 |
| 20260505221056 | 65 | 0 | 0.0 | 6.0 | 0.00 | 0.00 | 0.00 | 51 | 1011.9 |
| 20260505220555 | 65 | 255 | 1.0 | 6.0 | 0.00 | 0.00 | 0.00 | 51 | 1011.7 |
| 20260505220054 | 65 | 0 | 0.0 | 3.0 | 0.00 | 0.00 | 0.00 | 52 | 1011.8 |
| 20260505215554 | 65 | 0 | 0.0 | 3.0 | 0.00 | 0.00 | 0.00 | 51 | 1011.8 |
| 20260505215054 | 65 | 0 | 0.0 | 4.0 | 0.00 | 0.00 | 0.00 | 51 | 1012.7 |
| 20260505214630 | 66 | 0 | 0.0 | 4.0 | 0.00 | 0.00 | 0.00 | 49 | 1012.6 |
| 20260505214055 | 66 | 0 | 0.0 | 3.0 | 0.00 | 0.00 | 0.00 | 49 | 1012.6 |
| 20260505213555 | 67 | 0 | 0.0 | 3.0 | 0.00 | 0.00 | 0.00 | 49 | 1012.6 |
| 20260505213054 | 67 | 0 | 0.0 | 2.0 | 0.00 | 0.00 | 0.00 | 51 | 1012.8 |
| 20260505212114 | 67 | 0 | 0.0 | 4.0 | 0.00 | 0.00 | 0.00 | 51 | 1012.9 |
| 20260505211613 | 67 | 0 | 0.0 | 4.0 | 0.00 | 0.00 | 0.00 | 49 | 1012.8 |
| 20260505211113 | 67 | 0 | 0.0 | 4.0 | 0.00 | 0.00 | 0.00 | 49 | 1012.7 |
| 20260505210613 | 67 | 0 | 0.0 | 4.0 | 0.00 | 0.00 | 0.00 | 48 | 1012.9 |
| 20260505205625 | 68 | 222 | 1.0 | 6.0 | 0.00 | 0.00 | 0.00 | 47 | 1012.7 |
| 20260505205125 | 68 | 0 | 0.0 | 4.0 | 0.00 | 0.00 | 0.00 | 49 | 1012.9 |
| 20260505204625 | 69 | 0 | 0.0 | 3.0 | 0.00 | 0.00 | 0.00 | 46 | 1012.8 |
| 20260505204125 | 69 | 0 | 0.0 | 1.0 | 0.00 | 0.00 | 0.00 | 44 | 1012.7 |
| 20260505203312 | 71 | 268 | 1.0 | 4.0 | 0.00 | 0.00 | 0.00 | 46 | 1012.8 |
| 20260505202817 | 71 | 0 | 0.0 | 3.0 | 0.00 | 0.00 | 0.00 | 50 | 1013.0 |
| 20260505202312 | 71 | 0 | 0.0 | 9.0 | 0.00 | 0.00 | 0.00 | 49 | 1012.9 |
| 20260505201813 | 70 | 306 | 1.0 | 9.0 | 0.00 | 0.00 | 0.00 | 45 | 1012.9 |
| 20260505201426 | 70 | 0 | 0.0 | 4.0 | 0.00 | 0.00 | 0.00 | 43 | 1012.9 |
| 20260505200812 | 71 | 0 | 0.0 | 2.0 | 0.00 | 0.00 | 0.00 | 43 | 1013.0 |
| 20260505200326 | 70 | 0 | 0.0 | 3.0 | 0.00 | 0.00 | 0.00 | 47 | 1013.0 |
| 20260505195815 | 70 | 279 | 1.0 | 5.0 | 0.00 | 0.00 | 0.00 | 44 | 1013.1 |
| 20260505195312 | 70 | 0 | 0.0 | 5.0 | 0.00 | 0.00 | 0.00 | 42 | 1013.1 |
| 20260505194812 | 71 | 239 | 1.0 | 4.0 | 0.00 | 0.00 | 0.00 | 43 | 1013.4 |
| 20260505194314 | 71 | 0 | 0.0 | 8.0 | 0.00 | 0.00 | 0.00 | 44 | 1013.2 |
| 20260505193812 | 71 | 246 | 1.0 | 8.0 | 0.00 | 0.00 | 0.00 | 43 | 1013.4 |
| 20260505193312 | 72 | 241 | 1.0 | 4.0 | 0.00 | 0.00 | 0.00 | 42 | 1013.5 |
| 20260505192614 | 71 | 296 | 1.0 | 3.0 | 0.00 | 0.00 | 0.00 | 43 | 1013.6 |
| 20260505192114 | 71 | 0 | 0.0 | 4.0 | 0.00 | 0.00 | 0.00 | 46 | 1013.6 |
| 20260505191614 | 70 | 105 | 1.0 | 4.0 | 0.00 | 0.00 | 0.00 | 46 | 1013.7 |
| 20260505191044 | 70 | 0 | 0.0 | 4.0 | 0.00 | 0.00 | 0.00 | 47 | 1013.7 |
| 20260505190543 | 70 | 166 | 1.0 | 3.0 | 0.00 | 0.00 | 0.00 | 41 | 1013.7 |
| 20260505190043 | 70 | 0 | 0.0 | 3.0 | 0.00 | 0.00 | 0.00 | 44 | 1013.8 |
| 20260505185543 | 70 | 0 | 0.0 | 6.0 | 0.00 | 0.00 | 0.00 | 43 | 1013.9 |